Location: Bodham
(52.9000°N, 1.1667°E)
Time: 21:07:06
(UTC+00:00)

Cosmos 2227 Rocket - Pass Details

Date: 17 July 2025
Orbit: 836 x 845 km, 71.0° (Epoch: 16 April)

Event Time Altitude Azimuth Distance (km) Brightness Sun altitude
Rises 23:49:07 0° 327° (NNW) 3,416 6.4 -16.0°
Reaches altitude 10° 23:51:35 10° 324° (NW) 2,478 5.5 -16.1°
Maximum altitude 23:57:11 62° 245° (WSW) 948 2.3 -16.1°
Enters shadow 00:00:26 25° 173° (S) 1,632 3.1 -16.1°
